This is the latest recevied weather packets stored in our database for station/object NC4J. If no packets are shown the sender has not sent any weather packets the latest 10 day(s).
| Time | Temp. | Humidity | Pressure | Rain* | Wind** | Luminosity | Snow |
|---|---|---|---|---|---|---|---|
| 1777493132 | 25.56° C | 40% | 1010.7 hPa | 0 mm | - | 145 W/m² | - |
| 1777492829 | 25.56° C | 41% | 1010.5 hPa | 0 mm | - | 615 W/m² | - |
| 1777492526 | 25.56° C | 44% | 1010.7 hPa | 0 mm | - | 127 W/m² | - |
| 1777492222 | 25° C | 43% | 1010.8 hPa | 0 mm | - | 293 W/m² | - |
| 1777491919 | 25° C | 43% | 1010.9 hPa | 0 mm | - | 381 W/m² | - |
| 1777491615 | 25° C | 43% | 1010.9 hPa | 0 mm | - | 344 W/m² | - |
| 1777491313 | 25.56° C | 42% | 1010.8 hPa | 0 mm | - | 399 W/m² | - |
| 1777491010 | 25.56° C | 43% | 1010.9 hPa | 0 mm | - | 646 W/m² | - |
| 1777490705 | 25.56° C | 43% | 1011 hPa | 0 mm | - | 215 W/m² | - |
| 1777490403 | 25.56° C | 45% | 1011 hPa | 0 mm | - | 400 W/m² | - |
| 1777490099 | 26.11° C | 44% | 1011.3 hPa | 0 mm | - | 173 W/m² | - |
| 1777489796 | 25.56° C | 46% | 1011.4 hPa | 0 mm | - | 427 W/m² | - |
| 1777489494 | 25° C | 48% | 1011.2 hPa | 0 mm | - | 281 W/m² | - |
| 1777489190 | 25° C | 48% | 1011.3 hPa | 0 mm | - | 98 W/m² | - |
| 1777488887 | 25° C | 47% | 1011.2 hPa | 0 mm | - | 60 W/m² | - |
| 1777488584 | 25° C | 46% | 1011.3 hPa | 0 mm | - | 96 W/m² | - |
| 1777488282 | 24.44° C | 46% | 1011.4 hPa | 0 mm | - | 105 W/m² | - |
| 1777487980 | 25° C | 45% | 1011.4 hPa | 0 mm | - | 52 W/m² | - |
| 1777487677 | 25° C | 46% | 1011.5 hPa | 0 mm | - | 98 W/m² | - |
| 1777487374 | 25° C | 45% | 1011.3 hPa | 0 mm | - | 69 W/m² | - |
| 1777487072 | 25° C | 51% | 1011.4 hPa | 0 mm | - | 206 W/m² | - |
| 1777486767 | 23.89° C | 52% | 1011.5 hPa | 0 mm | - | 297 W/m² | - |
| 1777486466 | 23.89° C | 56% | 1011.5 hPa | 0 mm | - | 91 W/m² | - |
| 1777486163 | 23.89° C | 56% | 1011.7 hPa | 0 mm | - | 92 W/m² | - |
| 1777485860 | 23.33° C | 55% | 1011.7 hPa | 0 mm | - | 65 W/m² | - |
* Rain latest hour (hover to see other rain measurements)
** Current wind speed in m/s (hover to see current wind gust speed)